Location: Budapest
(47.4979°N, 19.0402°E)
Time: 17:41:36
(UTC+01:00)

ISS - Visible Passes

Search period start: 20 January 2018 00:00
Search period end: 30 January 2018 00:00
Orbit: 402 x 407 km, 51.6° (Epoch: 21 January)

Date Brightness Start Highest point End Pass type
(mag) Time Alt. Az. Time Alt. Az. Time Alt. Az.
25 Jan -1.7 18:12:07 10° S 18:13:38 15° SSE 18:13:38 15° SSE visible
26 Jan -1.9 18:54:48 10° SW 18:56:26 26° SW 18:56:26 26° SW visible
27 Jan -2.8 18:02:48 10° SSW 18:05:45 31° SE 18:06:28 28° ESE visible
27 Jan -0.4 19:38:52 10° W 19:39:08 12° W 19:39:08 12° W visible
28 Jan -2.0 17:11:09 10° S 17:13:33 19° SE 17:15:58 10° E visible
28 Jan -3.2 18:46:26 10° WSW 18:49:05 56° WSW 18:49:05 56° WSW visible
29 Jan -3.7 17:54:07 10° SW 17:57:20 63° SSE 17:58:58 26° ENE visible
29 Jan -0.8 19:30:47 10° W 19:31:38 16° WNW 19:31:38 16° WNW visible
